Burlington, WI

9:07 AM CDT on April 25, 2017 (GMT -0500)
Burlington

Weather History for KBUU - October, 2012

Change the Weather History Date:

Wednesday, October 17, 2012

  Actual Average (KENW) Record (KENW)
Temperature  
Mean Temperature 57 °F -  
Max Temperature 64 °F 58 °F 82 °F (1964)
Min Temperature 50 °F 40 °F 24 °F (1978)
Degree Days  
Heating Degree Days 8    
Growing Degree Days 7 (Base 50)    
Moisture  
Dew Point 51 °F    
Average Humidity 78    
Maximum Humidity 100    
Minimum Humidity 59    
Precipitation  
Precipitation 1.11 in - - ()
Sea Level Pressure  
Sea Level Pressure 29.42 in    
Wind  
Wind Speed 12 mph (SSW)    
Max Wind Speed 22 mph    
Max Gust Speed 26 mph    
Visibility 9 miles    
Events Rain    
Averages and records for this station are not official NWS values.
T = Trace of Precipitation, MM = Missing Value Source: NWS Daily Summary

Daily Weather History Graph

Daily Weather History Graph

Search for Another Location

Airport or City:

Trip Planner

Search our weather history database for the weather conditions in past years. The results will help you decide how hot, cold, wet, or windy it might be!

Date:

Astronomy

Oct. 17, 2012 Rise Set
Actual Time 7:09 AM CDT 6:06 PM CDT
Civil Twilight 6:40 AM CDT 6:35 PM CDT
Nautical Twilight 6:07 AM CDT 7:08 PM CDT
Astronomical Twilight 5:35 AM CDT 7:40 PM CDT
Moon 9:47 AM CDT (10/17) 7:38 PM CDT (10/17)
Length of Visible Light 11h 54m
Length of Day
10h 57m
Waxing Crescent, 7% of the Moon is Illuminated
Oct 17
Waxing Crescent
Oct 21
First Quarter
Oct 29
Full
Nov 6
Last Quarter
Nov 13
New

Hourly Weather History & Observations

Time (CDT) Temp. Dew Point Humidity Pressure Visibility Wind Dir Wind Speed Gust Speed Precip Events Conditions
12:15 AM 59.0 °F 51.8 °F 77% 29.50 in 10.0 mi SSW 10.4 mph - N/A   Clear
12:35 AM 59.0 °F 51.8 °F 77% 29.50 in 10.0 mi SSW 10.4 mph 17.3 mph N/A   Clear
12:55 AM 59.0 °F 51.8 °F 77% 29.50 in 10.0 mi SSW 13.8 mph - N/A   Clear
1:15 AM 59.0 °F 51.8 °F 77% 29.50 in 10.0 mi SSW 13.8 mph - N/A   Clear
1:35 AM 59.0 °F 51.8 °F 77% 29.50 in 10.0 mi SSW 12.7 mph 18.4 mph N/A   Clear
1:55 AM 59.0 °F 50.0 °F 72% 29.50 in 10.0 mi SSW 11.5 mph - N/A   Clear
2:15 AM 59.0 °F 50.0 °F 72% 29.50 in 10.0 mi SSW 11.5 mph - N/A   Clear
2:35 AM 57.2 °F 50.0 °F 77% 29.49 in 10.0 mi SSW 12.7 mph 19.6 mph N/A   Clear
2:55 AM 57.2 °F 50.0 °F 77% 29.49 in 10.0 mi SSW 10.4 mph - N/A   Clear
3:15 AM 57.2 °F 50.0 °F 77% 29.49 in 10.0 mi SSW 13.8 mph 18.4 mph N/A   Clear
3:35 AM 57.2 °F 50.0 °F 77% 29.49 in 10.0 mi SSW 13.8 mph 20.7 mph N/A   Clear
3:55 AM 57.2 °F 50.0 °F 77% 29.49 in 10.0 mi SSW 16.1 mph 19.6 mph N/A   Clear
4:15 AM 57.2 °F 48.2 °F 72% 29.49 in 10.0 mi SSW 12.7 mph 19.6 mph N/A   Clear
5:15 AM 55.4 °F 46.4 °F 72% 29.49 in 10.0 mi SSW 11.5 mph - N/A   Clear
5:35 AM 53.6 °F 46.4 °F 77% 29.49 in 10.0 mi SSW 10.4 mph - N/A   Clear
5:55 AM 53.6 °F 46.4 °F 77% 29.49 in 10.0 mi SSW 10.4 mph - N/A   Clear
6:15 AM 53.6 °F 46.4 °F 77% 29.49 in 10.0 mi SSW 11.5 mph 17.3 mph N/A   Clear
6:35 AM 53.6 °F 46.4 °F 77% 29.49 in 10.0 mi SSW 11.5 mph - N/A   Clear
6:55 AM 53.6 °F 46.4 °F 77% 29.49 in 10.0 mi SSW 11.5 mph - N/A   Clear
7:15 AM 53.6 °F 46.4 °F 77% 29.49 in 10.0 mi SSW 10.4 mph - N/A   Clear
7:35 AM 53.6 °F 46.4 °F 77% 29.49 in 10.0 mi SSW 8.1 mph - N/A   Clear
7:55 AM 55.4 °F 46.4 °F 72% 29.48 in 10.0 mi South 11.5 mph - N/A   Clear
8:15 AM 55.4 °F 46.4 °F 72% 29.48 in 10.0 mi South 10.4 mph 16.1 mph N/A   Clear
8:35 AM 59.0 °F 48.2 °F 67% 29.49 in 10.0 mi South 13.8 mph 20.7 mph N/A   Scattered Clouds
8:55 AM 59.0 °F 48.2 °F 67% 29.49 in 10.0 mi South 13.8 mph 18.4 mph N/A   Scattered Clouds
9:15 AM 59.0 °F 48.2 °F 67% 29.48 in 10.0 mi South 11.5 mph 20.7 mph N/A   Clear
9:35 AM 60.8 °F 48.2 °F 63% 29.49 in 10.0 mi SSW 15.0 mph 20.7 mph N/A   Clear
9:55 AM 59.0 °F 48.2 °F 67% 29.49 in 10.0 mi SSW 13.8 mph 23.0 mph N/A   Clear
10:15 AM 59.0 °F 48.2 °F 67% 29.49 in 10.0 mi SSW 18.4 mph 21.9 mph N/A   Clear
10:35 AM 62.6 °F 50.0 °F 63% 29.48 in 10.0 mi South 13.8 mph 19.6 mph N/A   Clear
10:55 AM 62.6 °F 50.0 °F 63% 29.47 in 10.0 mi South 16.1 mph 21.9 mph N/A   Clear
11:35 AM 62.6 °F 50.0 °F 63% 29.45 in 10.0 mi South 10.4 mph 21.9 mph N/A   Clear
11:55 AM 62.6 °F 50.0 °F 63% 29.45 in 10.0 mi SSE 15.0 mph 20.7 mph N/A   Clear
12:15 PM 64.4 °F 50.0 °F 59% 29.44 in 10.0 mi South 11.5 mph 18.4 mph N/A   Clear
12:35 PM 62.6 °F 50.0 °F 63% 29.44 in 10.0 mi SSE 13.8 mph 18.4 mph N/A   Clear
12:55 PM 62.6 °F 50.0 °F 63% 29.43 in 10.0 mi South 13.8 mph 20.7 mph N/A   Clear
1:15 PM 64.4 °F 50.0 °F 59% 29.42 in 10.0 mi South 15.0 mph 23.0 mph N/A   Clear
1:35 PM 62.6 °F 50.0 °F 63% 29.42 in 10.0 mi South 16.1 mph 23.0 mph N/A   Clear
1:55 PM 62.6 °F 51.8 °F 68% 29.42 in 10.0 mi South 12.7 mph 21.9 mph N/A   Clear
2:15 PM 64.4 °F 51.8 °F 64% 29.41 in 10.0 mi South 13.8 mph 26.5 mph N/A   Scattered Clouds
2:35 PM 62.6 °F 51.8 °F 68% 29.40 in 10.0 mi SSW 11.5 mph 26.5 mph N/A   Scattered Clouds
2:55 PM 62.6 °F 51.8 °F 68% 29.39 in 10.0 mi South 10.4 mph 16.1 mph N/A   Clear
3:15 PM 64.4 °F 51.8 °F 64% 29.39 in 10.0 mi South 10.4 mph 18.4 mph N/A   Scattered Clouds
3:35 PM 62.6 °F 51.8 °F 68% 29.38 in 10.0 mi South 9.2 mph 19.6 mph N/A   Overcast
3:55 PM 62.6 °F 51.8 °F 68% 29.38 in 10.0 mi South 16.1 mph 26.5 mph N/A   Overcast
4:15 PM 62.6 °F 53.6 °F 72% 29.39 in 10.0 mi SSW 19.6 mph 26.5 mph N/A   Overcast
4:35 PM 60.8 °F 53.6 °F 77% 29.39 in 10.0 mi South 15.0 mph 25.3 mph N/A   Overcast
4:55 PM 60.8 °F 53.6 °F 77% 29.37 in 10.0 mi South 8.1 mph 18.4 mph N/A   Overcast
5:15 PM 60.8 °F 53.6 °F 77% 29.37 in 10.0 mi South 15.0 mph 19.6 mph N/A   Overcast
5:35 PM 59.0 °F 53.6 °F 82% 29.37 in 10.0 mi South 12.7 mph 19.6 mph N/A   Overcast
5:55 PM 59.0 °F 53.6 °F 82% 29.36 in 10.0 mi South 8.1 mph - N/A Rain Rain
6:15 PM 55.4 °F 55.4 °F 100% 29.34 in 7.0 mi SE 6.9 mph - N/A Rain Rain
6:35 PM 55.4 °F 55.4 °F 100% 29.35 in 10.0 mi South 10.4 mph - 0.01 in Rain Light Rain
6:55 PM 55.4 °F 55.4 °F 100% 29.34 in 10.0 mi SSE 5.8 mph - 0.01 in   Overcast
7:15 PM 55.4 °F 55.4 °F 100% 29.33 in 10.0 mi SSE 9.2 mph - N/A   Overcast
7:35 PM 55.4 °F 55.4 °F 100% 29.32 in 7.0 mi SSE 6.9 mph - N/A Rain Rain
7:55 PM 55.4 °F 55.4 °F 100% 29.31 in 4.0 mi SE 5.8 mph - 0.04 in Rain Rain
8:15 PM 55.4 °F 55.4 °F 100% 29.28 in 3.0 mi ESE 5.8 mph - 0.01 in Rain Heavy Rain
8:35 PM 55.4 °F 55.4 °F 100% 29.28 in 2.5 mi SE 8.1 mph - 0.06 in Rain Heavy Rain
8:55 PM 55.4 °F 55.4 °F 100% 29.27 in 3.0 mi SSE 10.4 mph - 0.26 in Rain Rain
9:35 PM 55.4 °F 55.4 °F 100% 29.27 in 1.5 mi SSW 4.6 mph - 0.50 in Rain Heavy Rain
9:55 PM 53.6 °F 51.8 °F 94% 29.28 in 3.0 mi WNW 21.9 mph 25.3 mph 0.70 in Rain Heavy Rain
10:15 PM 51.8 °F 50.0 °F 94% 29.28 in 7.0 mi WNW 16.1 mph 24.2 mph 0.04 in Rain Rain
10:55 PM 50.0 °F 50.0 °F 100% 29.27 in 10.0 mi WNW 9.2 mph - 0.10 in Rain Rain
11:15 PM 50.0 °F 50.0 °F 100% 29.28 in 10.0 mi West 8.1 mph - N/A   Light Drizzle
11:35 PM 50.0 °F 50.0 °F 100% 29.28 in 10.0 mi West 8.1 mph - N/A   Drizzle
11:55 PM 50.0 °F 50.0 °F 100% 29.28 in 10.0 mi WSW 8.1 mph - N/A   Overcast